Miscellaneous Local Product
Issued by NWS North Platte, NE

Home | Current Version | Previous Version | Graphics & Text | Print | Product List | Glossary On
Versions: 1 2 3 4 5 6 7 8 9 10 11 12 13 14 15 16 17 18 19 20 21 22 23 24 25 26 27 28 29 30 31 32 33 34 35 36 37 38 39 40 41 42 43 44 45 46 47 48 49 50
000
AXUS43 KLBF 221610
MISLBF


WESTERN AND NORTH CENTRAL NEBRASKA HOURLY WEATHER ROUNDUP
NATIONAL WEATHER SERVICE NORTH PLATTE NE
1000 AM CST MON DEC 22 2014

***STATIONS NOT REPORTING VARIABLES SUCH AS SKY/WEATHER OR
PRESSURE ARE PROVIDED BY THE NEBRASKA DEPARTMENT OF
ROADS...RAWS...AND APRS NETWORKS...AND ARE NOT UNDER
NATIONAL WEATHER SERVICE QUALITY CONTROL***

...OBSERVATIONS IN AND NEAR THE EASTERN PANHANDLE OF NEBRASKA...

CITY           SKY/WX    TMP DP  RH WIND       PRES   REMARKS
PINE RIDGE     MOSUNNY   36  27  69 W14G22    29.58F WCI  27
CHADRON        MOSUNNY   34  26  72 W10       29.65S WCI  26
ALLIANCE       MOSUNNY   31  23  72 W20       29.63S WCI  19
SIDNEY         MOSUNNY   34  26  72 NW16      29.67S WCI  24
WHITECLAY        N/A     34  26  70 W15         N/A  WCI  24
CRESCENT LAKE    N/A     37  25  63 NW17G25     N/A  WCI  27
LISCO            N/A     37  24  59 W15         N/A  WCI  28
BIG SPRINGS      N/A     36  30  78 W6          N/A  WCI  31
$$

...OBSERVATIONS IN NORTH CENTRAL NEBRASKA...

CITY           SKY/WX    TMP DP  RH WIND       PRES   REMARKS
VALENTINE      CLOUDY    38  31  76 NW10      29.51F WCI  31
THEDFORD       MOSUNNY   39  32  76 NW14G23   29.54R WCI  31
AINSWORTH      CLOUDY    39  31  73 NW16G22   29.50S WCI  30
O`NEILL        CLOUDY    39  37  91 W13       29.48S WCI  32
BROKEN BOW     MOSUNNY   41  34  76 NW14      29.53S
BROWNLEE         N/A     39  30  70 W18         N/A  WCI  30
SPRINGVIEW       N/A     39  34  82 NW13G23     N/A  WCI  31
BREWSTER         N/A     38  33  85 W9          N/A  WCI  31
ROSE             N/A     38  37  94 SW8         N/A  WCI  32
SARGENT          N/A     39  36  88 W3          N/A
COMSTOCK         N/A     41  37  84 W8          N/A
CHAMBERS         N/A     40  35  84 W8G20       N/A  WCI  34
EWING            N/A     39  38  97 CALM        N/A
$$

...OBSERVATIONS IN SOUTHWEST NEBRASKA AND FAR NORTHEAST COLORADO...

CITY           SKY/WX    TMP DP  RH WIND       PRES   REMARKS
WRAY           FAIR      36  29  77 W14G20    29.69F WCI  27
HOLYOKE        FAIR      37  28  70 NW12G22   29.67S WCI  30
IMPERIAL       PTSUNNY   39  27  62 NW17      29.64F WCI  30
OGALLALA       MOSUNNY   38  29  70 NW17G24   29.63F WCI  28
NORTH PLATTE   PTSUNNY   37  30  75 W16       29.59S WCI  28
MCCOOK         CLOUDY    40  32  73 W8        29.62F WCI  34
LEXINGTON      PTSUNNY   39  35  84 NW13      29.57S WCI  32
PAXTON           N/A     38  33  82 W8          N/A  WCI  32
BRADY            N/A     38  33  81 SW6         N/A  WCI  33
GOTHENBURG       N/A     39  32  76 W9          N/A  WCI  33
CALLAWAY         N/A     37  33  86 NW16        N/A  WCI  27
$$

...NORTH PLATTE AREA...

CITY           SKY/WX    TMP DP  RH WIND       PRES   REMARKS
AIRPORT        PTSUNNY   37  30  75 W16       29.59S WCI  28
DOWNTOWN         N/A     39  30  71 W9G16       N/A  WCI  33
$$

...SOME WEATHER OBSERVATIONS FROM AROUND THE REGION...

CITY           SKY/WX    TMP DP  RH WIND       PRES   REMARKS
DENVER         CLOUDY    31  26  82 S9        29.72F WCI  23
LARAMIE        CLOUDY    25  17  72 NW22G31   29.69F WCI  10
CHEYENNE       CLOUDY    27  14  58 NW12      29.69F WCI  17
SCOTTSBLUFF    MOSUNNY   33  25  72 W10       29.69S WCI  25
RAPID CITY     PTSUNNY   41  21  44 NW23G31   29.54S
PIERRE         CLOUDY    37  34  89 NW15      29.46R WCI  28
WINNER         LGT RAIN  39  34  82 NW20G26   29.48S WCI  29
SIOUX FALLS    LGT RAIN  40  40 100 S7        29.45S FOG
OMAHA          LGT RAIN  42  40  92 SE15      29.52F FOG
GRAND ISLAND   LGT RAIN  41  36  82 NW15      29.53S
KANSAS CITY    LGT RAIN  43  43 100 S12       29.56F FOG
WICHITA        CLOUDY    48  45  89 W9        29.58R FOG
HAYS           PTSUNNY   43  30  61 NW14      29.62R
LIBERAL        SUNNY     46  34  61 NW23G29   29.74R
GOODLAND       PTSUNNY   37  30  75 NW13      29.70F WCI  29
$$



USA.gov is the U.S. government's official web portal to all federal, state and local government web resources and services.